Regional Weather Roundup
Issued by NWS

Home | Current Version | Previous Version | Graphics & Text | Print | Product List | Glossary On
Versions: 1 2 3 4 5 6 7 8 9 10 11 12 13 14 15 16 17 18 19 20 21 22 23 24 25 26 27 28 29 30 31 32 33 34 35 36 37 38 39 40 41 42 43 44 45 46 47 48 49 50
000
ASUS43 KOAX 250302
RWRNE

WEATHER ROUNDUP FOR NEBRASKA
NATIONAL WEATHER SERVICE OMAHA NE
1000 PM CDT MON APR 24 2017

NOTES: SATELLITE DATA IS BEING USED TO AUGMENT CLOUD COVER ABOVE
       12000 FEET.
       "FAIR" INDICATES FEW OR NO CLOUDS BELOW 12,000 FEET WITH NO
       SIGNIFICANT WEATHER AND/OR OBSTRUCTIONS TO VISIBILITY.

  * THESE STATIONS DO NOT REPORT WEATHER SUCH AS RAIN...SNOW OR FOG.

NEZ001>004-019>022-054>056-250400-
NEBRASKA PANHANDLE

CITY           SKY/WX    TMP DP  RH WIND       PRES   REMARKS
SCOTTSBLUFF    LGT RAIN  52  45  77 CALM      29.60R
ALLIANCE       CLOUDY    55  36  48 NW9       29.57R
CHADRON        LGT RAIN  50  45  83 E9        29.60R
KIMBALL        LGT RAIN  49  44  84 W7        29.64R
SIDNEY         LGT RAIN  53  39  59 VRB5      29.58S
$$

NEZ057>060-069>072-079>082-250400-
SOUTHWEST NEBRASKA

CITY           SKY/WX    TMP DP  RH WIND       PRES   REMARKS
NORTH PLATTE   CLOUDY    53  41  63 E12       29.57S
IMPERIAL       LGT RAIN  60  40  47 NE9       29.56R
LEXINGTON      MOCLDY    58  41  52 NE14      29.55F
MCCOOK         CLOUDY    61  43  51 E13       29.52R
OGALLALA       CLOUDY    60  39  44 E15G22    29.59R
$$

NEZ005>010-023>029-035>040-094-250400-
NORTH CENTRAL NEBRASKA

CITY           SKY/WX    TMP DP  RH WIND       PRES   REMARKS
VALENTINE      PTCLDY    49  39  68 E7        29.62R
AINSWORTH      CLOUDY    45  40  85 NE8       29.62R
BROKEN BOW     CLEAR     51  39  63 N3        29.60R
O`NEILL        PTCLDY    48  39  72 N8        29.61R
ORD            CLEAR     50  40  68 N6        29.58R
THEDFORD       PTCLDY    47  40  77 E3        29.62R
$$

NEZ041-046>049-061>064-073>077-083>087-250400-
SOUTH CENTRAL NEBRASKA

CITY           SKY/WX    TMP DP  RH WIND       PRES   REMARKS
GRAND ISLAND   CLEAR     57  44  62 N12       29.57R
AURORA         MOCLDY    59  44  57 N10       29.56R
HASTINGS       MOCLDY    62  43  49 N18       29.56R
HEBRON         PTCLDY    65  42  43 N10       29.51R
HOLDREGE       MOCLDY    58  41  52 NE15      29.54S
KEARNEY *      PTCLDY    57  39  51 N18       29.56F
YORK           CLOUDY    57  41  54 N6        29.55R
$$

NEZ011>018-030>034-042>045-250400-
NORTHEAST NEBRASKA

CITY           SKY/WX    TMP DP  RH WIND       PRES   REMARKS
NORFOLK        MOCLDY    53  41  63 NW16G24   29.57R
ALBION         PTCLDY    54  42  64 N8        29.58R
BLAIR          CLOUDY    68  45  43 S10       29.52S
FREMONT        CLOUDY    65  47  50 SW5       29.53R
TEKAMAH        CLOUDY    64  47  53 VRB5      29.51R
WAYNE          PTCLDY    53  43  69 NW9       29.57R
$$

NEZ050>053-065>068-078-088>093-250400-
SOUTHEAST NEBRASKA

CITY           SKY/WX    TMP DP  RH WIND       PRES   REMARKS
LINCOLN        CLEAR     62  48  60 SE8       29.51S
OMAHA EPPLEY   MOCLDY    68  44  42 S12       29.53R
BEATRICE       CLEAR     66  49  54 SE9       29.51S
FALLS CITY     CLEAR     60  44  55 SE8       29.55S
NEBRASKA CITY  PTCLDY    63  38  39 S10       29.54S
PLATTSMOUTH    PTCLDY    65  38  36 S13       29.54S
$$

NEZ044-045-051>053-067-250400-
OMAHA AREA

CITY           SKY/WX    TMP DP  RH WIND       PRES   REMARKS
OMAHA EPPLEY   MOCLDY    68  44  42 S12       29.53R
BLAIR          CLOUDY    68  45  43 S10       29.52S
FREMONT        CLOUDY    65  47  50 SW5       29.53R
MILLARD        CLOUDY    70  47  44 SE9       29.52S
OFFUTT AFB     PTCLDY    65  43  44 S10       29.53R
PLATTSMOUTH    PTCLDY    65  38  36 S13       29.54S
WAHOO          FAIR      64  46  53 SW6       29.53R
$$



USA.gov is the U.S. government's official web portal to all federal, state and local government web resources and services.